Orbital Elements at Epoch 2459000.5 (2020-May-31.0) TDB
Reference: JPL 22 (heliocentric ecliptic J2000)
Element | Value | Uncertainty (1-sigma) | Units |
e | .1287895287092084 | 3.2117e-08 | |
a | 2.251725589107256 | 7.3752e-09 | au |
q | 1.961726911703668 | 7.2329e-08 | au |
i | 7.460323521724325 | 3.5395e-06 | deg |
node | 99.95646051558982 | 3.7192e-05 | deg |
peri | 169.4304887842988 | 4.2306e-05 | deg |
M | 59.73564568487566 | 2.1923e-05 | deg |
tp | 2458795.712858794864 (2019-Nov-08.21285879) | 7.4744e-05 | TDB |
period | 1234.160441200602 3.38 | 6.0635e-06 1.66e-08 | d yr |
n | .2916962722041138 | 1.4331e-09 | deg/d |
Q | 2.541724266510844 | 8.325e-09 | au |
|
| | Orbit Determination Parameters
Additional Information
|